Weather History for Antalya, Turkey

Change the Weather History Date:

Thursday, August 1, 2013

  Actual Average Record
Temperature  
Mean Temperature 86 °F -  
Max Temperature 100 °F 92 °F 107 °F (2010)
Min Temperature 73 °F 72 °F 69 °F (1996)
Cooling Degree Days 22    
Growing Degree Days 36 (Base 50)    
Moisture  
Dew Point 68 °F    
Average Humidity 63    
Maximum Humidity 83    
Minimum Humidity 17    
Precipitation  
Precipitation 0.00 in 0.00 in - ()
Sea Level Pressure  
Sea Level Pressure 29.65 in    
Wind  
Wind Speed 5 mph ()    
Max Wind Speed 14 mph    
Max Gust Speed -    
Visibility 6.2 miles    
Events      
Averages and records for this station are not official NWS values.
T = Trace of Precipitation, MM = Missing Value Source: Averaged Metar Reports

Daily Weather History Graph

Daily Weather History Graph

Search for Another Location

Airport:

Trip Planner

Search our weather history database for the weather conditions in past years. The results will help you decide how hot, cold, wet, or windy it might be!

Date:

Astronomy

Aug. 01, 2013 Rise Set
Actual Time 6:02 AM EEST 8:03 PM EEST
Civil Twilight 5:33 AM EEST 8:32 PM EEST
Nautical Twilight 4:58 AM EEST 9:06 PM EEST
Astronomical Twilight 4:20 AM EEST 9:44 PM EEST
Moon 1:24 AM EEST 3:54 PM EEST
Length of Visible Light 14h 58m
Length of Day
14h 01m
Waning Crescent, 26% of the Moon is Illuminated
Aug 1
Waning Crescent
Aug 7
New
Aug 14
First Quarter
Aug 21
Full
Aug 28
Last Quarter

Hourly Weather History & Observations

Time (EEST) Temp. Heat Index Dew Point Humidity Pressure Visibility Wind Dir Wind Speed Gust Speed Precip Events Conditions
12:20 AM 77.0 °F - 71.6 °F 83% 29.65 in - Variable 1.2 mph - N/A   Clear
12:50 AM 77.0 °F - 69.8 °F 78% 29.65 in - Calm Calm - N/A   Clear
1:20 AM 77.0 °F - 69.8 °F 78% 29.65 in - Variable 1.2 mph - N/A   Clear
1:50 AM 77.0 °F - 69.8 °F 78% 29.65 in - North 3.5 mph - N/A   Clear
2:20 AM 75.2 °F - 68.0 °F 78% 29.65 in - NNW 3.5 mph - N/A   Clear
2:50 AM 75.2 °F - 68.0 °F 78% 29.62 in - Variable 2.3 mph - N/A   Clear
3:00 AM 74 °F - 67 °F 73% 29.62 in 6 mi NNW 2.3 mph - -  
3:20 AM 75.2 °F - 68.0 °F 78% 29.62 in - North 3.5 mph - N/A   Clear
3:50 AM 75.2 °F - 66.2 °F 73% 29.62 in - NNW 5.8 mph - N/A   Clear
4:20 AM 75.2 °F - 66.2 °F 73% 29.62 in - North 4.6 mph - N/A   Clear
4:50 AM 73.4 °F - 66.2 °F 78% 29.62 in - Variable 2.3 mph - N/A   Clear
5:20 AM 75.2 °F - 64.4 °F 69% 29.62 in - NNW 3.5 mph - N/A   Clear
5:50 AM 75.2 °F - 64.4 °F 69% 29.62 in - Variable 2.3 mph - N/A   Clear
6:20 AM 77.0 °F - 62.6 °F 61% 29.62 in - NNW 4.6 mph - N/A   Clear
6:50 AM 78.8 °F - 59.0 °F 51% 29.62 in - North 6.9 mph - N/A   Clear
7:20 AM 84.2 °F 83.0 °F 55.4 °F 37% 29.65 in - NNW 5.8 mph - N/A   Clear
7:50 AM 86.0 °F 84.2 °F 53.6 °F 33% 29.65 in - NNW 9.2 mph - N/A   Clear
8:20 AM 89.6 °F 87.3 °F 53.6 °F 29% 29.65 in - North 5.8 mph - N/A   Clear
8:50 AM 91.4 °F 89.1 °F 53.6 °F 28% 29.65 in - North 8.1 mph - N/A   Clear
9:00 AM 92 °F - 52 °F 17% 29.63 in 6 mi North 8.1 mph - -  
9:20 AM 95.0 °F 92.7 °F 53.6 °F 25% 29.65 in - NNW 9.2 mph - N/A   Clear
9:50 AM 95.0 °F 92.7 °F 53.6 °F 25% 29.65 in - NNW 12.7 mph - N/A   Clear
10:20 AM 96.8 °F 94.4 °F 53.6 °F 23% 29.65 in - North 9.2 mph - N/A   Clear
10:50 AM 98.6 °F 96.4 °F 53.6 °F 22% 29.65 in - NNE 9.2 mph - N/A   Clear
11:20 AM 100.4 °F - 51.8 °F 20% 29.65 in 6.2 mi Variable 5.8 mph - N/A   Partly Cloudy
11:50 AM 89.6 °F 96.2 °F 71.6 °F 55% 29.65 in - SE 11.5 mph - N/A   Clear
12:20 PM 87.8 °F 95.6 °F 73.4 °F 62% 29.65 in 6.2 mi SSE 11.5 mph - N/A   Partly Cloudy
12:50 PM 89.6 °F 96.2 °F 71.6 °F 55% 29.65 in 6.2 mi SSE 11.5 mph - N/A   Partly Cloudy
1:20 PM 86.0 °F 95.1 °F 75.2 °F 70% 29.65 in 6.2 mi SSE 12.7 mph - N/A   Scattered Clouds
1:50 PM 86.0 °F 96.9 °F 77.0 °F 74% 29.65 in 6.2 mi South 13.8 mph - N/A   Scattered Clouds
2:20 PM 87.8 °F 97.6 °F 75.2 °F 66% 29.65 in 6.2 mi SSE 9.2 mph - N/A   Scattered Clouds
2:50 PM 87.8 °F 99.7 °F 77.0 °F 70% 29.65 in 6.2 mi SSE 8.1 mph - N/A   Scattered Clouds
3:00 PM 87 °F - 77 °F 65% 29.65 in 6 mi SSE 8.1 mph - -   Partly Cloudy
3:20 PM 86.0 °F 96.9 °F 77.0 °F 74% 29.65 in 6.2 mi SE 8.1 mph - N/A   Scattered Clouds
3:50 PM 89.6 °F 99.8 °F 75.2 °F 62% 29.65 in 6.2 mi Variable 5.8 mph - N/A   Scattered Clouds
4:20 PM 87.8 °F 95.6 °F 73.4 °F 62% 29.65 in 6.2 mi ESE 8.1 mph - N/A   Scattered Clouds
4:50 PM 87.8 °F 95.6 °F 73.4 °F 62% 29.65 in 6.2 mi ESE 5.8 mph - N/A   Scattered Clouds
5:20 PM 86.0 °F 95.1 °F 75.2 °F 70% 29.65 in 6.2 mi SE 6.9 mph - N/A   Scattered Clouds
5:50 PM 86.0 °F 95.1 °F 75.2 °F 70% 29.65 in 6.2 mi SE 5.8 mph - N/A   Scattered Clouds
6:20 PM 84.2 °F 92.3 °F 75.2 °F 74% 29.65 in 6.2 mi SE 5.8 mph - N/A   Scattered Clouds
6:50 PM 82.4 °F 89.5 °F 75.2 °F 79% 29.68 in 6.2 mi ESE 5.8 mph - N/A   Scattered Clouds
7:20 PM 82.4 °F 88.2 °F 73.4 °F 74% 29.68 in 6.2 mi SE 5.8 mph - N/A   Scattered Clouds
7:50 PM 82.4 °F 88.2 °F 73.4 °F 74% 29.68 in 6.2 mi SSE 4.6 mph - N/A   Scattered Clouds
8:20 PM 82.4 °F 88.2 °F 73.4 °F 74% 29.68 in 6.2 mi Variable 2.3 mph - N/A   Scattered Clouds
8:50 PM 80.6 °F 85.4 °F 73.4 °F 79% 29.71 in 6.2 mi ESE 2.3 mph - N/A   Scattered Clouds
9:00 PM 81 °F - 74 °F 74% 29.68 in 6 mi ESE 2.3 mph - -   Partly Cloudy
9:20 PM 80.6 °F 85.4 °F 73.4 °F 79% 29.71 in 6.2 mi Variable 1.2 mph - N/A   Scattered Clouds
9:50 PM 82.4 °F 88.2 °F 73.4 °F 74% 29.71 in 6.2 mi Variable 2.3 mph - N/A   Scattered Clouds
10:20 PM 80.6 °F 85.4 °F 73.4 °F 79% 29.71 in 6.2 mi WSW 4.6 mph - N/A   Scattered Clouds
10:50 PM 82.4 °F 88.2 °F 73.4 °F 74% 29.71 in 6.2 mi Variable 2.3 mph - N/A   Scattered Clouds
11:20 PM 82.4 °F 88.2 °F 73.4 °F 74% 29.71 in 6.2 mi West 3.5 mph - N/A   Partly Cloudy
11:50 PM 82.4 °F 88.2 °F 73.4 °F 74% 29.71 in 6.2 mi North 4.6 mph - N/A   Partly Cloudy